Location: Gu�tanj
(46.5431°N, 14.9692°E)
Time: 17:54:51
(UTC+00:00)

SJ 16-02 - Pass Details

Date: 03 March 2021
Orbit: 605 x 617 km, 75.0° (Epoch: 15 April)

Event Time Altitude Azimuth Distance (km) Brightness Sun altitude
Rises 19:34:49 0° 339° (NNW) 2,883 5.4 -28.8°
Reaches altitude 10° 19:37:04 10° 338° (NNW) 1,976 4.4 -29.1°
Enters shadow 19:39:28 32° 337° (NNW) 1,058 2.8 -29.5°
